contact:dominique.lefevre@mio.osupytheas.fr, maurice.libes@osupytheas.fr, didier.mallarino@osupytheas.fr
Project:EMSO http://www.emso-fr.org/EMSO-France
Depth: 2436.0 m
Title:EMSO Ligure Ouest : Data MII capteur AQUADOPP
Date,Latitude,Longitude,X_East,Y_North,Z_Up,Amplitude_X,Amplitude_Y,Amplitude_Z,Batterie,SoundSpeed,Heading,Pitch,Roll,Pressure,TIS,Speed,Direction
, degrees North, degrees East, m.s-1, m.s-1,m.s-1, 1, 1, 1, Volt, m.s-1, degree, degree, degree, dbar, degree_C, m.s-1, degree
2019-06-30T00:04:03,42.805,6.029,-0.035,-0.003,-0.005,105.0,109.0,100.0,13.3,1505.3,324.8,-0.7,1.9,2470.062,13.32,0.035,265.1
2019-06-30T00:07:04,42.805,6.029,-0.022,0.004,-0.006,104.0,109.0,100.0,13.3,1505.3,325.3,-0.8,1.9,2470.047,13.33,0.022,280.3
2019-06-30T00:10:05,42.805,6.029,-0.008,-0.001,-0.017,108.0,107.0,101.0,13.3,1505.3,324.9,-0.7,1.8,2470.086,13.33,0.008,262.9
2019-06-30T00:13:06,42.805,6.029,-0.027,0.007,-0.015,103.0,109.0,101.0,13.3,1505.3,326.7,-0.7,1.8,2470.067,13.33,0.027,284.5
2019-06-30T00:16:07,42.805,6.029,-0.025,0.011,0.007,104.0,109.0,101.0,13.4,1505.3,326.8,-0.7,1.8,2470.069,13.33,0.027,293.7
2019-06-30T00:19:08,42.805,6.029,-0.037,0.001,-0.011,105.0,108.0,100.0,13.4,1505.3,325.4,-0.7,1.8,2470.052,13.33,0.037,271.5
2019-06-30T00:22:09,42.805,6.029,-0.032,0.0,-0.001,105.0,110.0,100.0,13.3,1505.3,325.2,-0.7,1.8,2470.048,13.33,0.032,270.0
2019-06-30T00:25:10,42.805,6.029,-0.02,0.01,-0.007,106.0,110.0,101.0,13.4,1505.3,328.2,-0.7,1.8,2470.038,13.33,0.022,296.6
2019-06-30T00:28:11,42.805,6.029,-0.016,0.012,-0.017,105.0,110.0,99.0,13.4,1505.3,325.3,-0.8,1.8,2470.024,13.33,0.02,306.9
2019-06-30T00:31:12,42.805,6.029,-0.018,0.014,-0.03,105.0,109.0,100.0,13.4,1505.3,323.7,-0.7,1.8,2470.043,13.33,0.022,307.9
2019-06-30T00:34:13,42.805,6.029,-0.004,0.02,-0.023,106.0,108.0,100.0,13.4,1505.3,323.1,-0.7,1.8,2470.09,13.33,0.02,348.7
2019-06-30T00:37:14,42.805,6.029,-0.036,0.003,-0.014,105.0,109.0,101.0,13.3,1505.3,324.8,-0.7,1.8,2470.058,13.33,0.036,274.8
2019-06-30T00:40:15,42.805,6.029,-0.039,0.005,-0.004,105.0,108.0,100.0,13.4,1505.3,325.2,-0.7,1.8,2470.046,13.33,0.039,277.3
2019-06-30T00:43:16,42.805,6.029,-0.021,0.016,0.017,103.0,108.0,100.0,13.4,1505.3,328.4,-0.7,1.8,2470.036,13.33,0.026,307.3
2019-06-30T00:46:17,42.805,6.029,-0.029,-0.003,-0.026,104.0,109.0,100.0,13.4,1505.3,323.4,-0.7,1.8,2470.02,13.33,0.029,264.1
2019-06-30T00:49:18,42.805,6.029,-0.041,0.008,-0.013,105.0,108.0,101.0,13.4,1505.3,325.2,-0.7,1.9,2470.055,13.33,0.041,281.0
2019-06-30T00:52:19,42.805,6.029,-0.017,0.015,-0.012,105.0,108.0,102.0,13.4,1505.3,324.9,-0.7,1.8,2470.03,13.33,0.022,311.4
2019-06-30T00:55:20,42.805,6.029,-0.018,-0.004,-0.026,106.0,108.0,100.0,13.4,1505.3,328.5,-0.7,1.9,2470.031,13.33,0.018,257.5
2019-06-30T00:58:21,42.805,6.029,-0.002,0.009,0.001,105.0,109.0,101.0,13.4,1505.3,323.5,-0.7,1.8,2470.051,13.33,0.009,347.5
2019-06-30T01:01:22,42.805,6.029,0.024,0.008,0.01,104.0,108.0,102.0,13.4,1505.3,325.5,-0.7,1.9,2470.047,13.33,0.025,71.6
2019-06-30T01:04:23,42.805,6.029,0.001,0.001,-0.021,104.0,106.0,102.0,13.4,1505.3,324.0,-0.7,1.8,2470.093,13.33,0.001,45.0
2019-06-30T01:07:24,42.805,6.029,-0.02,0.006,0.018,104.0,107.0,101.0,13.4,1505.3,325.6,-0.7,1.9,2470.068,13.33,0.02,286.7
2019-06-30T01:10:25,42.805,6.029,-0.018,0.0,0.021,104.0,107.0,100.0,13.3,1505.3,325.4,-0.7,1.8,2470.082,13.33,0.018,270.0
2019-06-30T01:13:26,42.805,6.029,-0.051,0.007,-0.018,107.0,107.0,100.0,13.4,1505.3,324.6,-0.7,1.8,2470.076,13.33,0.051,277.8
2019-06-30T01:16:27,42.805,6.029,-0.011,0.012,-0.008,105.0,107.0,101.0,13.3,1505.3,328.2,-0.7,1.9,2470.052,13.33,0.016,317.5
2019-06-30T01:19:28,42.805,6.029,-0.022,0.005,-0.011,103.0,107.0,100.0,13.4,1505.3,326.2,-0.7,1.8,2470.057,13.33,0.022,282.8
2019-06-30T01:22:29,42.805,6.029,-0.027,0.001,0.001,105.0,107.0,102.0,13.4,1505.3,326.1,-0.8,1.9,2470.094,13.33,0.027,272.1
2019-06-30T01:25:30,42.805,6.029,-0.019,0.022,-0.008,105.0,109.0,100.0,13.4,1505.3,324.9,-0.8,1.8,2470.021,13.33,0.029,319.2
2019-06-30T01:28:31,42.805,6.029,-0.023,0.0,0.014,106.0,108.0,100.0,13.3,1505.3,326.4,-0.7,1.8,2470.013,13.33,0.023,270.0
2019-06-30T01:31:32,42.805,6.029,0.001,0.008,-0.028,106.0,110.0,101.0,13.4,1505.3,324.1,-0.7,1.8,2470.081,13.33,0.008,7.1
2019-06-30T01:34:33,42.805,6.029,-0.019,0.005,-0.002,105.0,107.0,102.0,13.4,1505.3,323.4,-0.7,1.8,2470.079,13.33,0.019,284.7
2019-06-30T01:37:34,42.805,6.029,-0.041,0.013,-0.02,105.0,109.0,100.0,13.3,1505.3,326.8,-0.7,1.8,2470.019,13.33,0.043,287.6
2019-06-30T01:40:35,42.805,6.029,-0.015,0.0,-0.013,104.0,108.0,101.0,13.4,1505.3,327.8,-0.7,1.9,2470.081,13.33,0.015,270.0
2019-06-30T01:43:36,42.805,6.029,-0.033,-0.004,-0.004,104.0,109.0,101.0,13.3,1505.3,323.8,-0.7,1.8,2470.112,13.33,0.033,263.1
2019-06-30T01:46:37,42.805,6.029,-0.023,0.011,-0.024,104.0,108.0,100.0,13.4,1505.3,326.7,-0.7,1.8,2470.062,13.33,0.025,295.6
2019-06-30T01:49:38,42.805,6.029,0.032,-0.005,0.013,104.0,108.0,102.0,13.4,1505.3,324.6,-0.7,1.8,2470.089,13.33,0.032,98.9
2019-06-30T01:52:39,42.805,6.029,-0.035,0.008,-0.017,105.0,109.0,100.0,13.4,1505.3,326.9,-0.7,1.8,2470.099,13.33,0.035,282.9
2019-06-30T01:55:40,42.805,6.029,-0.019,0.003,0.01,106.0,109.0,99.0,13.3,1505.3,328.3,-0.8,1.9,2470.096,13.33,0.019,279.0
2019-06-30T01:58:41,42.805,6.029,-0.01,-0.002,-0.008,105.0,108.0,102.0,13.3,1505.3,322.5,-0.7,1.8,2470.059,13.33,0.01,258.7
2019-06-30T02:01:42,42.805,6.029,-0.038,0.01,-0.021,105.0,109.0,101.0,13.3,1505.3,324.0,-0.7,1.9,2470.095,13.33,0.039,284.7
2019-06-30T02:04:43,42.805,6.029,-0.003,0.013,0.003,105.0,109.0,101.0,13.4,1505.3,325.2,-0.8,1.8,2470.105,13.33,0.013,347.0
2019-06-30T02:07:44,42.805,6.029,-0.013,-0.005,0.022,106.0,109.0,100.0,13.4,1505.3,324.3,-0.7,1.8,2470.104,13.33,0.013,249.0
2019-06-30T02:10:45,42.805,6.029,-0.026,0.009,-0.012,105.0,108.0,102.0,13.4,1505.3,324.7,-0.8,1.8,2470.091,13.33,0.027,289.1
2019-06-30T02:13:46,42.805,6.029,-0.011,0.001,-0.026,106.0,108.0,101.0,13.4,1505.3,325.7,-0.7,1.9,2470.096,13.33,0.011,275.2
2019-06-30T02:16:47,42.805,6.029,-0.045,0.003,-0.019,106.0,108.0,102.0,13.3,1505.3,323.7,-0.7,1.9,2470.101,13.33,0.045,273.8
2019-06-30T02:19:48,42.805,6.029,-0.012,-0.006,-0.02,105.0,110.0,101.0,13.4,1505.3,325.0,-0.7,1.9,2470.122,13.33,0.013,243.4
2019-06-30T02:22:49,42.805,6.029,-0.024,0.006,-0.015,106.0,110.0,101.0,13.4,1505.3,323.5,-0.7,1.8,2470.119,13.33,0.024,284.0
2019-06-30T02:25:50,42.805,6.029,-0.019,0.021,-0.048,105.0,110.0,100.0,13.4,1505.3,326.6,-0.7,1.8,2470.077,13.33,0.028,317.9
2019-06-30T02:28:51,42.805,6.029,-0.026,0.013,0.0,106.0,108.0,100.0,13.3,1505.3,325.0,-0.7,1.8,2470.144,13.33,0.029,296.6
2019-06-30T02:31:52,42.805,6.029,-0.033,-0.005,0.006,105.0,108.0,101.0,13.4,1505.3,326.0,-0.7,1.8,2470.142,13.33,0.033,261.4
2019-06-30T02:34:53,42.805,6.029,0.005,0.005,-0.024,105.0,107.0,102.0,13.3,1505.3,326.3,-0.7,1.8,2470.13,13.33,0.007,45.0
2019-06-30T02:37:54,42.805,6.029,-0.035,0.008,-0.037,105.0,109.0,103.0,13.4,1505.3,325.0,-0.7,1.9,2470.115,13.33,0.035,282.9
2019-06-30T02:40:55,42.805,6.029,-0.02,0.0,-0.016,104.0,108.0,101.0,13.4,1505.3,324.0,-0.7,1.8,2470.074,13.33,0.02,270.0
2019-06-30T02:43:56,42.805,6.029,-0.037,-0.01,-0.009,104.0,109.0,101.0,13.4,1505.3,326.5,-0.7,1.9,2470.138,13.33,0.038,254.9
2019-06-30T02:46:57,42.805,6.029,-0.02,0.022,-0.006,104.0,108.0,102.0,13.4,1505.3,326.8,-0.7,1.8,2470.109,13.33,0.029,317.7
2019-06-30T02:49:58,42.805,6.029,-0.025,0.004,-0.013,104.0,108.0,101.0,13.3,1505.3,325.2,-0.7,1.9,2470.127,13.33,0.025,279.1
2019-06-30T02:52:59,42.805,6.029,-0.018,-0.003,-0.033,104.0,107.0,101.0,13.3,1505.3,323.5,-0.8,1.8,2470.107,13.33,0.018,260.5
2019-06-30T02:56:00,42.805,6.029,-0.034,-0.002,-0.044,105.0,109.0,100.0,13.4,1505.3,326.9,-0.8,1.8,2470.139,13.33,0.034,266.6
2019-06-30T02:59:01,42.805,6.029,-0.021,0.004,-0.004,104.0,109.0,100.0,13.4,1505.3,327.6,-0.8,1.8,2470.101,13.33,0.021,280.8
2019-06-30T03:02:02,42.805,6.029,-0.011,0.009,0.013,104.0,110.0,100.0,13.3,1505.3,327.0,-0.7,1.9,2470.149,13.33,0.014,309.3
2019-06-30T03:05:03,42.805,6.029,-0.012,0.018,-0.019,106.0,108.0,100.0,13.3,1505.3,328.1,-0.8,1.9,2470.111,13.33,0.021,326.3
2019-06-30T03:08:04,42.805,6.029,-0.037,0.001,-0.028,105.0,108.0,101.0,13.4,1505.3,324.7,-0.7,1.8,2470.149,13.33,0.037,271.5
2019-06-30T03:11:05,42.805,6.029,0.01,0.008,0.021,104.0,108.0,99.0,13.3,1505.3,326.6,-0.7,1.9,2470.184,13.33,0.012,51.3
2019-06-30T03:14:06,42.805,6.029,-0.047,-0.01,-0.039,106.0,107.0,101.0,13.4,1505.3,322.8,-0.7,1.8,2470.142,13.33,0.048,258.0
2019-06-30T03:17:07,42.805,6.029,-0.03,0.005,-0.011,104.0,108.0,100.0,13.3,1505.3,327.5,-0.7,1.9,2470.161,13.33,0.03,279.5
2019-06-30T03:20:08,42.805,6.029,-0.011,-0.017,-0.035,104.0,107.0,100.0,13.4,1505.3,327.1,-0.7,1.8,2470.14,13.33,0.02,212.9
